Time,TemperatureF,DewpointF,PressureIn,WindDirection,WindDirectionDegrees,WindSpeedMPH,WindSpeedGustMPH,Humidity,HourlyPrecipIn,Conditions,Clouds,dailyrainin,SolarRadiationWatts/m^2,SoftwareType,DateUTC
2013-01-23 00:04:00,9.0,6.2,30.33,NW,322,8.0,10.0,88,0.00,,CLR,0.00,0.00,VWS V14.00,2013-01-23 06:04:00,
2013-01-23 00:09:00,9.1,6.3,30.33,NW,322,8.0,10.0,88,0.00,,CLR,0.00,0.00,VWS V14.00,2013-01-23 06:09:00,
2013-01-23 00:15:00,9.2,6.4,30.33,NW,322,9.0,11.0,88,0.00,,CLR,0.00,0.00,VWS V14.00,2013-01-23 06:15:00,
2013-01-23 00:20:00,9.0,6.2,30.33,NW,323,9.0,11.0,88,0.00,,CLR,0.00,0.00,VWS V14.00,2013-01-23 06:20:00,
2013-01-23 00:25:00,8.8,6.0,30.33,NW,323,7.0,11.0,88,0.00,,CLR,0.00,0.00,VWS V14.00,2013-01-23 06:25:00,
2013-01-23 00:30:00,8.7,5.9,30.33,NW,323,7.0,9.0,88,0.00,,CLR,0.00,0.00,VWS V14.00,2013-01-23 06:30:00,
2013-01-23 00:35:00,8.8,6.0,30.33,NW,323,7.0,10.0,88,0.00,,CLR,0.00,0.00,VWS V14.00,2013-01-23 06:35:00,
2013-01-23 00:40:00,8.7,5.6,30.33,NW,323,7.0,10.0,87,0.00,,CLR,0.00,0.00,VWS V14.00,2013-01-23 06:40:00,
2013-01-23 00:45:00,8.4,5.3,30.33,NW,321,6.0,10.0,87,0.00,,CLR,0.00,0.00,VWS V14.00,2013-01-23 06:45:00,
2013-01-23 00:50:00,8.5,5.7,30.34,NW,318,6.0,10.0,88,0.00,,CLR,0.00,0.00,VWS V14.00,2013-01-23 06:50:00,
2013-01-23 00:55:00,8.3,5.5,30.34,NW,315,7.0,10.0,88,0.00,,CLR,0.00,0.00,VWS V14.00,2013-01-23 06:55:00,
2013-01-23 01:00:00,8.2,5.4,30.33,NW,316,9.0,10.0,88,0.00,,CLR,0.00,0.00,VWS V14.00,2013-01-23 07:00:00,
2013-01-23 01:06:00,8.4,5.6,30.33,NW,319,8.0,12.0,88,0.00,,CLR,0.00,0.00,VWS V14.00,2013-01-23 07:06:00,
2013-01-23 01:11:00,8.4,5.3,30.33,NW,321,7.0,12.0,87,0.00,,CLR,0.00,0.00,VWS V14.00,2013-01-23 07:11:00,
2013-01-23 01:16:00,8.3,5.2,30.33,NW,324,9.0,12.0,87,0.00,,CLR,0.00,0.00,VWS V14.00,2013-01-23 07:16:00,
2013-01-23 01:21:00,8.7,5.6,30.33,NW,323,9.0,13.0,87,0.00,,CLR,0.00,0.00,VWS V14.00,2013-01-23 07:21:00,
2013-01-23 01:26:00,8.6,5.5,30.33,NW,323,8.0,13.0,87,0.00,,CLR,0.00,0.00,VWS V14.00,2013-01-23 07:26:00,
2013-01-23 01:31:00,8.5,5.2,30.33,NW,324,9.0,10.0,86,0.00,,CLR,0.00,0.00,VWS V14.00,2013-01-23 07:31:00,
2013-01-23 01:37:00,8.3,5.0,30.33,NW,325,7.0,10.0,86,0.00,,CLR,0.00,0.00,VWS V14.00,2013-01-23 07:37:00,
2013-01-23 01:42:00,8.3,5.2,30.34,NW,325,8.0,10.0,87,0.00,,CLR,0.00,0.00,VWS V14.00,2013-01-23 07:42:00,
2013-01-23 01:47:00,8.4,5.1,30.34,NW,325,8.0,10.0,86,0.00,,CLR,0.00,0.00,VWS V14.00,2013-01-23 07:47:00,
2013-01-23 01:52:00,8.1,4.8,30.34,NNW,329,7.0,11.0,86,0.00,,CLR,0.00,0.00,VWS V14.00,2013-01-23 07:52:00,
2013-01-23 01:58:00,8.5,5.2,30.34,NNW,329,9.0,13.0,86,0.00,,CLR,0.00,0.00,VWS V14.00,2013-01-23 07:58:00,
2013-01-23 02:03:00,8.9,5.6,30.35,NW,326,14.0,16.0,86,0.00,,CLR,0.00,0.00,VWS V14.00,2013-01-23 08:03:00,
2013-01-23 02:08:00,9.1,5.5,30.35,NW,325,10.0,16.0,85,0.00,,CLR,0.00,0.00,VWS V14.00,2013-01-23 08:08:00,
2013-01-23 02:13:00,8.9,5.3,30.35,NW,317,10.0,16.0,85,0.00,,CLR,0.00,0.00,VWS V14.00,2013-01-23 08:13:00,
2013-01-23 02:18:00,8.6,5.0,30.35,NW,318,13.0,16.0,85,0.00,,CLR,0.00,0.00,VWS V14.00,2013-01-23 08:18:00,
2013-01-23 02:23:00,8.8,5.5,30.36,NW,319,10.0,16.0,86,0.00,,CLR,0.00,0.00,VWS V14.00,2013-01-23 08:23:00,
2013-01-23 02:28:00,8.9,5.3,30.36,NW,320,9.0,16.0,85,0.00,,CLR,0.00,0.00,VWS V14.00,2013-01-23 08:28:00,
2013-01-23 02:33:00,8.8,5.2,30.36,NW,320,11.0,12.0,85,0.00,,CLR,0.00,0.00,VWS V14.00,2013-01-23 08:33:00,
2013-01-23 02:38:00,8.8,5.2,30.36,NW,325,11.0,13.0,85,0.00,,CLR,0.00,0.00,VWS V14.00,2013-01-23 08:38:00,
2013-01-23 02:43:00,8.6,5.0,30.37,NW,325,11.0,13.0,85,0.00,,CLR,0.00,0.00,VWS V14.00,2013-01-23 08:43:00,
2013-01-23 02:48:00,8.5,4.9,30.37,NW,325,8.0,13.0,85,0.00,,CLR,0.00,0.00,VWS V14.00,2013-01-23 08:48:00,
2013-01-23 02:53:00,8.5,4.7,30.37,NW,326,8.0,13.0,84,0.00,,CLR,0.00,0.00,VWS V14.00,2013-01-23 08:53:00,
2013-01-23 02:59:00,8.4,4.8,30.38,NW,323,11.0,13.0,85,0.00,,CLR,0.00,0.00,VWS V14.00,2013-01-23 08:59:00,
2013-01-23 03:04:00,8.4,4.6,30.38,NNW,327,10.0,15.0,84,0.00,,CLR,0.00,0.00,VWS V14.00,2013-01-23 09:04:00,
2013-01-23 03:09:00,8.3,4.5,30.38,NNW,327,10.0,15.0,84,0.00,,CLR,0.00,0.00,VWS V14.00,2013-01-23 09:09:00,
2013-01-23 03:14:00,8.1,4.3,30.38,NNW,329,11.0,15.0,84,0.00,,CLR,0.00,0.00,VWS V14.00,2013-01-23 09:14:00,
2013-01-23 03:19:00,8.0,4.2,30.38,NNW,329,9.0,15.0,84,0.00,,CLR,0.00,0.00,VWS V14.00,2013-01-23 09:19:00,
2013-01-23 03:24:00,7.8,4.0,30.38,NNW,329,9.0,15.0,84,0.00,,CLR,0.00,0.00,VWS V14.00,2013-01-23 09:24:00,
2013-01-23 03:29:00,7.8,4.0,30.38,NNW,329,8.0,15.0,84,0.00,,CLR,0.00,0.00,VWS V14.00,2013-01-23 09:29:00,
2013-01-23 03:34:00,7.8,4.0,30.37,NW,325,12.0,12.0,84,0.00,,CLR,0.00,0.00,VWS V14.00,2013-01-23 09:34:00,
2013-01-23 03:39:00,7.8,4.0,30.38,NW,319,12.0,14.0,84,0.00,,CLR,0.00,0.00,VWS V14.00,2013-01-23 09:39:00,
2013-01-23 03:44:00,7.7,3.6,30.38,NNW,328,9.0,14.0,83,0.00,,CLR,0.00,0.00,VWS V14.00,2013-01-23 09:44:00,
2013-01-23 03:50:00,7.5,3.4,30.38,NNW,332,13.0,15.0,83,0.00,,CLR,0.00,0.00,VWS V14.00,2013-01-23 09:50:00,
2013-01-23 03:55:00,7.3,3.2,30.38,NNW,330,11.0,18.0,83,0.00,,CLR,0.00,0.00,VWS V14.00,2013-01-23 09:55:00,
2013-01-23 04:00:00,7.1,2.8,30.38,NNW,336,11.0,12.0,82,0.00,,CLR,0.00,0.00,VWS V14.00,2013-01-23 10:00:00,
2013-01-23 04:05:00,6.7,2.4,30.38,NNW,341,10.0,16.0,82,0.00,,CLR,0.00,0.00,VWS V14.00,2013-01-23 10:05:00,
2013-01-23 04:10:00,6.5,2.2,30.39,NNW,343,13.0,16.0,82,0.00,,CLR,0.00,0.00,VWS V14.00,2013-01-23 10:10:00,
2013-01-23 04:15:00,6.4,2.1,30.39,NNW,342,11.0,16.0,82,0.00,,CLR,0.00,0.00,VWS V14.00,2013-01-23 10:15:00,
2013-01-23 04:20:00,6.3,2.0,30.38,NNW,344,14.0,16.0,82,0.00,,CLR,0.00,0.00,VWS V14.00,2013-01-23 10:20:00,
2013-01-23 04:25:00,6.0,1.7,30.39,North,350,11.0,16.0,82,0.00,,CLR,0.00,0.00,VWS V14.00,2013-01-23 10:25:00,
2013-01-23 04:30:00,5.9,1.6,30.39,North,350,13.0,14.0,82,0.00,,CLR,0.00,0.00,VWS V14.00,2013-01-23 10:30:00,
2013-01-23 04:36:00,5.6,1.3,30.39,North,350,13.0,16.0,82,0.00,,CLR,0.00,0.00,VWS V14.00,2013-01-23 10:36:00,
2013-01-23 04:41:00,5.5,1.5,30.39,North,350,10.0,17.0,83,0.00,,CLR,0.00,0.00,VWS V14.00,2013-01-23 10:41:00,
2013-01-23 04:46:00,5.4,1.4,30.39,North,355,9.0,17.0,83,0.00,,CLR,0.00,0.00,VWS V14.00,2013-01-23 10:46:00,
2013-01-23 04:52:00,5.0,1.0,30.39,North,350,9.0,17.0,83,0.00,,CLR,0.00,0.00,VWS V14.00,2013-01-23 10:52:00,
2013-01-23 04:57:00,5.0,1.0,30.40,NNW,348,12.0,17.0,83,0.00,,CLR,0.00,0.00,VWS V14.00,2013-01-23 10:57:00,
2013-01-23 05:02:00,4.9,0.9,30.40,NNW,344,14.0,15.0,83,0.00,,CLR,0.00,0.00,VWS V14.00,2013-01-23 11:02:00,
2013-01-23 05:07:00,4.8,0.8,30.40,North,349,11.0,15.0,83,0.00,,CLR,0.00,0.00,VWS V14.00,2013-01-23 11:07:00,
2013-01-23 05:12:00,4.8,0.8,30.40,NNW,346,11.0,15.0,83,0.00,,CLR,0.00,0.00,VWS V14.00,2013-01-23 11:12:00,
2013-01-23 05:18:00,4.9,0.9,30.41,NNW,346,13.0,16.0,83,0.00,,CLR,0.00,0.00,VWS V14.00,2013-01-23 11:18:00,
2013-01-23 05:23:00,4.8,0.5,30.41,NNW,338,13.0,16.0,82,0.00,,CLR,0.00,0.00,VWS V14.00,2013-01-23 11:23:00,
2013-01-23 05:28:00,4.8,0.5,30.41,NNW,342,14.0,16.0,82,0.00,,CLR,0.00,0.00,VWS V14.00,2013-01-23 11:28:00,
2013-01-23 05:33:00,4.9,0.6,30.41,NNW,336,12.0,16.0,82,0.00,,CLR,0.00,0.00,VWS V14.00,2013-01-23 11:33:00,
2013-01-23 05:38:00,4.8,0.5,30.42,NNW,341,10.0,16.0,82,0.00,,CLR,0.00,0.00,VWS V14.00,2013-01-23 11:38:00,
2013-01-23 05:43:00,4.7,0.4,30.42,NNW,336,10.0,16.0,82,0.00,,CLR,0.00,0.00,VWS V14.00,2013-01-23 11:43:00,
2013-01-23 05:48:00,4.7,0.4,30.42,NNW,333,14.0,16.0,82,0.00,,CLR,0.00,0.00,VWS V14.00,2013-01-23 11:48:00,
2013-01-23 05:53:00,4.7,0.4,30.43,NNW,334,10.0,16.0,82,0.00,,CLR,0.00,0.00,VWS V14.00,2013-01-23 11:53:00,
2013-01-23 05:59:00,4.9,0.6,30.43,NNW,331,12.0,16.0,82,0.00,,CLR,0.00,0.00,VWS V14.00,2013-01-23 11:59:00,
2013-01-23 06:04:00,4.8,0.3,30.43,NNW,336,10.0,14.0,81,0.00,,CLR,0.00,0.00,VWS V14.00,2013-01-23 12:04:00,
2013-01-23 06:09:00,4.6,0.1,30.44,NNW,331,9.0,14.0,81,0.00,,CLR,0.00,0.00,VWS V14.00,2013-01-23 12:09:00,
2013-01-23 06:14:00,4.5,0.2,30.44,NW,323,12.0,14.0,82,0.00,,CLR,0.00,0.00,VWS V14.00,2013-01-23 12:14:00,
2013-01-23 06:19:00,4.5,0.0,30.44,NW,326,10.0,14.0,81,0.00,,CLR,0.00,0.00,VWS V14.00,2013-01-23 12:19:00,
2013-01-23 06:24:00,4.4,-0.1,30.45,NW,325,10.0,14.0,81,0.00,,CLR,0.00,0.00,VWS V14.00,2013-01-23 12:24:00,
2013-01-23 06:30:00,4.1,-0.4,30.45,NW,326,9.0,12.0,81,0.00,,CLR,0.00,0.00,VWS V14.00,2013-01-23 12:30:00,
2013-01-23 06:35:00,4.0,-0.5,30.45,NW,324,8.0,12.0,81,0.00,,CLR,0.00,0.00,VWS V14.00,2013-01-23 12:35:00,
2013-01-23 06:40:00,3.9,-0.6,30.45,NW,323,9.0,12.0,81,0.00,,CLR,0.00,0.00,VWS V14.00,2013-01-23 12:40:00,
2013-01-23 06:45:00,3.8,-0.5,30.45,NW,325,8.0,12.0,82,0.00,,CLR,0.00,0.00,VWS V14.00,2013-01-23 12:45:00,
2013-01-23 06:50:00,3.4,-0.9,30.46,NNW,331,11.0,12.0,82,0.00,,CLR,0.00,0.00,VWS V14.00,2013-01-23 12:50:00,
2013-01-23 06:55:00,2.9,-1.6,30.46,NNW,333,8.0,13.0,81,0.00,,CLR,0.00,0.00,VWS V14.00,2013-01-23 12:55:00,
2013-01-23 07:01:00,2.4,-1.8,30.46,NNW,333,7.0,9.0,82,0.00,,CLR,0.00,0.00,VWS V14.00,2013-01-23 13:01:00,
2013-01-23 07:06:00,2.4,-1.6,30.46,NNW,333,7.0,10.0,83,0.00,,CLR,0.00,0.00,VWS V14.00,2013-01-23 13:06:00,
2013-01-23 07:11:00,1.9,-2.3,30.46,NNW,336,7.0,10.0,82,0.00,,CLR,0.00,0.00,VWS V14.00,2013-01-23 13:11:00,
2013-01-23 07:16:00,1.5,-2.5,30.47,NNW,339,8.0,10.0,83,0.00,,CLR,0.00,0.00,VWS V14.00,2013-01-23 13:16:00,
2013-01-23 07:21:00,1.5,-2.5,30.47,NNW,339,7.0,10.0,83,0.00,,CLR,0.00,0.00,VWS V14.00,2013-01-23 13:21:00,
2013-01-23 07:26:00,1.3,-2.7,30.47,NNW,344,7.0,10.0,83,0.00,,CLR,0.00,0.00,VWS V14.00,2013-01-23 13:26:00,
2013-01-23 07:31:00,1.4,-2.3,30.48,North,350,11.0,13.0,84,0.00,,CLR,0.00,0.00,VWS V14.00,2013-01-23 13:31:00,
2013-01-23 07:36:00,1.9,-2.1,30.48,North,350,11.0,14.0,83,0.00,,CLR,0.00,0.00,VWS V14.00,2013-01-23 13:36:00,
2013-01-23 07:41:00,1.9,-2.3,30.48,North,349,10.0,14.0,82,0.00,,CLR,0.00,0.00,VWS V14.00,2013-01-23 13:41:00,
2013-01-23 07:46:00,1.9,-2.3,30.48,NNW,347,14.0,15.0,82,0.00,,CLR,0.00,0.00,VWS V14.00,2013-01-23 13:46:00,
2013-01-23 07:51:00,2.0,-2.2,30.49,NNW,345,12.0,16.0,82,0.00,,CLR,0.00,0.00,VWS V14.00,2013-01-23 13:51:00,
2013-01-23 07:56:00,2.1,-2.1,30.49,NNW,346,15.0,17.0,82,0.00,,CLR,0.00,0.00,VWS V14.00,2013-01-23 13:56:00,
2013-01-23 08:01:00,1.9,-2.3,30.49,NNW,347,12.0,14.0,82,0.00,,CLR,0.00,0.00,VWS V14.00,2013-01-23 14:01:00,
2013-01-23 08:06:00,1.7,-2.5,30.48,NNW,343,10.0,14.0,82,0.00,,CLR,0.00,0.00,VWS V14.00,2013-01-23 14:06:00,
2013-01-23 08:11:00,1.6,-2.6,30.48,NNW,340,11.0,14.0,82,0.00,,CLR,0.00,7.00,VWS V14.00,2013-01-23 14:11:00,
2013-01-23 08:16:00,1.3,-2.9,30.49,NNW,342,9.0,14.0,82,0.00,,CLR,0.00,9.00,VWS V14.00,2013-01-23 14:16:00,
2013-01-23 08:22:00,1.3,-2.7,30.49,NNW,346,12.0,14.0,83,0.00,,CLR,0.00,12.00,VWS V14.00,2013-01-23 14:22:00,
2013-01-23 08:27:00,1.4,-2.5,30.49,NNW,346,12.0,14.0,83,0.00,,CLR,0.00,16.00,VWS V14.00,2013-01-23 14:27:00,
2013-01-23 08:32:00,1.6,-2.4,30.50,NNW,345,14.0,16.0,83,0.00,,CLR,0.00,19.00,VWS V14.00,2013-01-23 14:32:00,
2013-01-23 08:37:00,1.7,-2.5,30.50,North,350,12.0,17.0,82,0.00,,CLR,0.00,26.00,VWS V14.00,2013-01-23 14:37:00,
2013-01-23 08:42:00,1.6,-2.9,30.50,North,355,16.0,17.0,81,0.00,,CLR,0.00,32.00,VWS V14.00,2013-01-23 14:42:00,
2013-01-23 08:47:00,1.7,-2.5,30.51,North,351,12.0,18.0,82,0.00,,CLR,0.00,35.00,VWS V14.00,2013-01-23 14:47:00,
2013-01-23 08:52:00,1.6,-2.9,30.51,NNW,348,15.0,18.0,81,0.00,,CLR,0.00,44.00,VWS V14.00,2013-01-23 14:52:00,
2013-01-23 08:57:00,1.6,-2.9,30.51,NNW,346,16.0,18.0,81,0.00,,CLR,0.00,51.00,VWS V14.00,2013-01-23 14:57:00,
2013-01-23 09:02:00,1.5,-3.0,30.52,North,349,16.0,19.0,81,0.00,,CLR,0.00,51.00,VWS V14.00,2013-01-23 15:02:00,
2013-01-23 09:07:00,1.3,-3.2,30.52,NNW,346,16.0,19.0,81,0.00,,CLR,0.00,63.00,VWS V14.00,2013-01-23 15:07:00,
2013-01-23 09:12:00,1.3,-3.2,30.52,NNW,347,16.0,19.0,81,0.00,,CLR,0.00,83.00,VWS V14.00,2013-01-23 15:12:00,
2013-01-23 09:17:00,1.3,-3.2,30.53,North,351,12.0,20.0,81,0.00,,CLR,0.00,102.00,VWS V14.00,2013-01-23 15:17:00,
2013-01-23 09:22:00,1.3,-3.4,30.53,North,350,19.0,22.0,80,0.00,,CLR,0.00,109.00,VWS V14.00,2013-01-23 15:22:00,
2013-01-23 09:27:00,1.3,-3.7,30.53,NNW,346,17.0,25.0,79,0.00,,CLR,0.00,134.00,VWS V14.00,2013-01-23 15:27:00,
2013-01-23 09:32:00,1.1,-3.9,30.53,North,355,17.0,22.0,79,0.00,,CLR,0.00,121.00,VWS V14.00,2013-01-23 15:32:00,
2013-01-23 09:37:00,0.9,-4.1,30.53,North,355,16.0,23.0,79,0.00,,CLR,0.00,116.00,VWS V14.00,2013-01-23 15:37:00,
2013-01-23 09:42:00,0.8,-4.2,30.53,North,355,17.0,23.0,79,0.00,,CLR,0.00,146.00,VWS V14.00,2013-01-23 15:42:00,
2013-01-23 09:47:00,0.7,-4.3,30.54,North,5,18.0,23.0,79,0.00,,CLR,0.00,165.00,VWS V14.00,2013-01-23 15:47:00,
2013-01-23 09:52:00,0.7,-4.3,30.55,North,355,19.0,23.0,79,0.00,,CLR,0.00,185.00,VWS V14.00,2013-01-23 15:52:00,
2013-01-23 09:57:00,0.7,-4.3,30.55,North,355,20.0,23.0,79,0.00,,CLR,0.00,202.00,VWS V14.00,2013-01-23 15:57:00,
2013-01-23 10:02:00,0.6,-4.4,30.56,North,349,20.0,23.0,79,0.00,,CLR,0.00,230.00,VWS V14.00,2013-01-23 16:02:00,
2013-01-23 10:07:00,0.7,-4.5,30.57,North,350,18.0,23.0,78,0.00,,CLR,0.00,253.00,VWS V14.00,2013-01-23 16:07:00,
2013-01-23 10:12:00,0.8,-4.4,30.56,North,5,16.0,23.0,78,0.00,,CLR,0.00,239.00,VWS V14.00,2013-01-23 16:12:00,
2013-01-23 10:17:00,0.6,-4.6,30.57,North,360,19.0,24.0,78,0.00,,CLR,0.00,230.00,VWS V14.00,2013-01-23 16:17:00,
2013-01-23 10:22:00,0.7,-4.5,30.58,North,355,12.0,24.0,78,0.00,,CLR,0.00,229.00,VWS V14.00,2013-01-23 16:22:00,
2013-01-23 10:27:00,0.8,-4.4,30.58,North,5,10.0,24.0,78,0.00,,CLR,0.00,229.00,VWS V14.00,2013-01-23 16:27:00,
2013-01-23 10:32:00,0.8,-4.4,30.58,North,360,13.0,17.0,78,0.00,,CLR,0.00,229.00,VWS V14.00,2013-01-23 16:32:00,
2013-01-23 10:37:00,0.5,-5.0,30.59,North,5,11.0,17.0,77,0.00,,CLR,0.00,234.00,VWS V14.00,2013-01-23 16:37:00,
2013-01-23 10:42:00,0.6,-4.9,30.59,North,355,17.0,20.0,77,0.00,,CLR,0.00,251.00,VWS V14.00,2013-01-23 16:42:00,
2013-01-23 10:47:00,0.3,-5.2,30.59,North,355,14.0,20.0,77,0.00,,CLR,0.00,297.00,VWS V14.00,2013-01-23 16:47:00,
2013-01-23 10:53:00,0.3,-5.2,30.59,North,355,13.0,20.0,77,0.00,,CLR,0.00,336.00,VWS V14.00,2013-01-23 16:53:00,
2013-01-23 10:58:00,0.4,-5.1,30.60,North,355,13.0,20.0,77,0.00,,CLR,0.00,343.00,VWS V14.00,2013-01-23 16:58:00,
2013-01-23 11:03:00,0.1,-5.4,30.60,North,355,13.0,17.0,77,0.00,,CLR,0.00,316.00,VWS V14.00,2013-01-23 17:03:00,
2013-01-23 11:08:00,0.1,-5.4,30.60,North,355,16.0,17.0,77,0.00,,CLR,0.00,288.00,VWS V14.00,2013-01-23 17:08:00,
2013-01-23 11:13:00,-0.1,-5.5,30.60,North,355,12.0,17.0,77,0.00,,CLR,0.00,301.00,VWS V14.00,2013-01-23 17:13:00,
2013-01-23 11:18:00,0.3,-5.2,30.61,North,355,11.0,17.0,77,0.00,,CLR,0.00,294.00,VWS V14.00,2013-01-23 17:18:00,
2013-01-23 11:23:00,0.3,-5.2,30.61,North,355,12.0,17.0,77,0.00,,CLR,0.00,311.00,VWS V14.00,2013-01-23 17:23:00,
2013-01-23 11:28:00,0.4,-5.1,30.61,NNW,348,14.0,17.0,77,0.00,,CLR,0.00,318.00,VWS V14.00,2013-01-23 17:28:00,
2013-01-23 11:33:00,0.1,-5.7,30.62,NNW,348,12.0,18.0,76,0.00,,CLR,0.00,269.00,VWS V14.00,2013-01-23 17:33:00,
2013-01-23 11:38:00,-0.1,-5.5,30.62,North,355,13.0,19.0,77,0.00,,CLR,0.00,350.00,VWS V14.00,2013-01-23 17:38:00,
2013-01-23 11:43:00,0.4,-5.1,30.62,North,355,14.0,19.0,77,0.00,,CLR,0.00,399.00,VWS V14.00,2013-01-23 17:43:00,
2013-01-23 11:48:00,0.6,-4.9,30.62,North,5,13.0,19.0,77,0.00,,CLR,0.00,399.00,VWS V14.00,2013-01-23 17:48:00,
2013-01-23 11:53:00,0.8,-5.2,30.62,North,355,13.0,19.0,75,0.00,,CLR,0.00,403.00,VWS V14.00,2013-01-23 17:53:00,
2013-01-23 11:58:00,0.8,-5.0,30.62,North,5,9.0,19.0,76,0.00,,CLR,0.00,413.00,VWS V14.00,2013-01-23 17:58:00,
2013-01-23 12:03:00,0.8,-5.2,30.61,North,349,15.0,15.0,75,0.00,,CLR,0.00,415.00,VWS V14.00,2013-01-23 18:03:00,
2013-01-23 12:08:00,0.6,-5.2,30.61,North,355,13.0,16.0,76,0.00,,CLR,0.00,431.00,VWS V14.00,2013-01-23 18:08:00,
2013-01-23 12:13:00,0.8,-5.0,30.62,NNE,13,13.0,16.0,76,0.00,,CLR,0.00,418.00,VWS V14.00,2013-01-23 18:13:00,
2013-01-23 12:18:00,1.5,-4.6,30.62,NNE,19,9.0,16.0,75,0.00,,CLR,0.00,427.00,VWS V14.00,2013-01-23 18:18:00,
2013-01-23 12:23:00,1.6,-4.8,30.62,North,355,12.0,16.0,74,0.00,,CLR,0.00,413.00,VWS V14.00,2013-01-23 18:23:00,
2013-01-23 12:28:00,1.3,-4.8,30.62,NNE,12,9.0,16.0,75,0.00,,CLR,0.00,415.00,VWS V14.00,2013-01-23 18:28:00,
2013-01-23 12:33:00,1.8,-4.6,30.62,NNE,24,13.0,14.0,74,0.00,,CLR,0.00,417.00,VWS V14.00,2013-01-23 18:33:00,
2013-01-23 12:38:00,2.4,-4.0,30.62,NNE,17,14.0,14.0,74,0.00,,CLR,0.00,431.00,VWS V14.00,2013-01-23 18:38:00,
2013-01-23 12:43:00,2.4,-4.6,30.62,NNE,16,12.0,16.0,72,0.00,,CLR,0.00,420.00,VWS V14.00,2013-01-23 18:43:00,
2013-01-23 12:48:00,2.1,-4.8,30.61,North,10,9.0,16.0,72,0.00,,CLR,0.00,404.00,VWS V14.00,2013-01-23 18:48:00,
2013-01-23 12:53:00,1.8,-4.8,30.62,North,5,10.0,16.0,73,0.00,,CLR,0.00,415.00,VWS V14.00,2013-01-23 18:53:00,
2013-01-23 12:58:00,1.5,-4.8,30.62,North,360,7.0,16.0,74,0.00,,CLR,0.00,450.00,VWS V14.00,2013-01-23 18:58:00,
2013-01-23 13:03:00,1.8,-4.3,30.62,NNE,21,12.0,12.0,75,0.00,,CLR,0.00,450.00,VWS V14.00,2013-01-23 19:03:00,
2013-01-23 13:08:00,2.3,-4.1,30.62,North,5,8.0,12.0,74,0.00,,CLR,0.00,454.00,VWS V14.00,2013-01-23 19:08:00,
2013-01-23 13:13:00,1.7,-4.9,30.62,North,11,8.0,12.0,73,0.00,,CLR,0.00,452.00,VWS V14.00,2013-01-23 19:13:00,
2013-01-23 13:18:00,2.2,-4.2,30.62,NNE,18,10.0,13.0,74,0.00,,CLR,0.00,415.00,VWS V14.00,2013-01-23 19:18:00,
2013-01-23 13:24:00,2.3,-4.6,30.62,NNE,24,9.0,13.0,72,0.00,,CLR,0.00,411.00,VWS V14.00,2013-01-23 19:24:00,
2013-01-23 13:29:00,2.6,-4.3,30.62,North,5,9.0,13.0,72,0.00,,CLR,0.00,424.00,VWS V14.00,2013-01-23 19:29:00,
2013-01-23 13:34:00,2.0,-5.2,30.63,North,355,10.0,13.0,71,0.00,,CLR,0.00,380.00,VWS V14.00,2013-01-23 19:34:00,
2013-01-23 13:39:00,1.4,-5.5,30.62,NNE,13,8.0,14.0,72,0.00,,CLR,0.00,338.00,VWS V14.00,2013-01-23 19:39:00,
2013-01-23 13:44:00,1.4,-4.9,30.62,North,11,8.0,14.0,74,0.00,,CLR,0.00,325.00,VWS V14.00,2013-01-23 19:44:00,
2013-01-23 13:49:00,1.1,-5.5,30.62,North,5,7.0,14.0,73,0.00,,CLR,0.00,264.00,VWS V14.00,2013-01-23 19:49:00,
2013-01-23 13:54:00,0.5,-6.1,30.62,North,11,10.0,14.0,73,0.00,,CLR,0.00,288.00,VWS V14.00,2013-01-23 19:54:00,
2013-01-23 13:59:00,0.6,-5.7,30.62,North,5,9.0,14.0,74,0.00,,CLR,0.00,260.00,VWS V14.00,2013-01-23 19:59:00,
2013-01-23 14:04:00,0.5,-5.8,30.63,North,360,7.0,10.0,74,0.00,,CLR,0.00,258.00,VWS V14.00,2013-01-23 20:04:00,
2013-01-23 14:09:00,0.3,-6.0,30.63,North,9,6.0,10.0,74,0.00,,CLR,0.00,253.00,VWS V14.00,2013-01-23 20:09:00,
2013-01-23 14:14:00,0.3,-6.0,30.63,North,355,5.0,10.0,74,0.00,,CLR,0.00,265.00,VWS V14.00,2013-01-23 20:14:00,
2013-01-23 14:19:00,0.3,-6.0,30.64,North,355,8.0,10.0,74,0.00,,CLR,0.00,265.00,VWS V14.00,2013-01-23 20:19:00,
2013-01-23 14:24:00,0.1,-6.2,30.64,NNW,348,7.0,10.0,74,0.00,,CLR,0.00,311.00,VWS V14.00,2013-01-23 20:24:00,
2013-01-23 14:29:00,0.3,-5.7,30.64,North,355,6.0,10.0,75,0.00,,CLR,0.00,346.00,VWS V14.00,2013-01-23 20:29:00,
2013-01-23 14:34:00,0.3,-6.0,30.64,North,5,7.0,9.0,74,0.00,,CLR,0.00,302.00,VWS V14.00,2013-01-23 20:34:00,
2013-01-23 14:39:00,0.2,-6.4,30.66,North,5,6.0,9.0,73,0.00,,CLR,0.00,309.00,VWS V14.00,2013-01-23 20:39:00,
2013-01-23 14:44:00,0.4,-5.9,30.65,North,351,5.0,9.0,74,0.00,,FEW022,0.00,299.00,VWS V14.00,2013-01-23 20:44:00,
2013-01-23 14:49:00,0.2,-6.1,30.65,NNW,344,6.0,9.0,74,0.00,,FEW022,0.00,279.00,VWS V14.00,2013-01-23 20:49:00,
2013-01-23 14:54:00,0.3,-5.7,30.65,North,9,6.0,9.0,75,0.00,,FEW022,0.00,276.00,VWS V14.00,2013-01-23 20:54:00,
2013-01-23 14:59:00,0.3,-6.0,30.65,North,9,8.0,9.0,74,0.00,,FEW022,0.00,257.00,VWS V14.00,2013-01-23 20:59:00,
2013-01-23 15:04:00,0.6,-5.7,30.66,NNE,13,4.0,8.0,74,0.00,,FEW022,0.00,230.00,VWS V14.00,2013-01-23 21:04:00,
2013-01-23 15:09:00,1.0,-5.3,30.66,NNE,15,5.0,10.0,74,0.00,,FEW022,0.00,200.00,VWS V14.00,2013-01-23 21:09:00,
2013-01-23 15:14:00,1.0,-5.6,30.66,North,360,7.0,10.0,73,0.00,,FEW022,0.00,213.00,VWS V14.00,2013-01-23 21:14:00,
2013-01-23 15:19:00,0.6,-5.7,30.67,North,5,5.0,10.0,74,0.00,,FEW022,0.00,232.00,VWS V14.00,2013-01-23 21:19:00,
2013-01-23 15:24:00,0.7,-5.6,30.66,North,9,6.0,10.0,74,0.00,,FEW022,0.00,195.00,VWS V14.00,2013-01-23 21:24:00,
2013-01-23 15:30:00,0.5,-6.1,30.67,NNE,12,7.0,7.0,73,0.00,,FEW022,0.00,183.00,VWS V14.00,2013-01-23 21:30:00,
2013-01-23 15:35:00,0.5,-6.1,30.68,North,11,6.0,9.0,73,0.00,,FEW022,0.00,135.00,VWS V14.00,2013-01-23 21:35:00,
2013-01-23 15:40:00,0.2,-6.4,30.67,NNE,18,8.0,9.0,73,0.00,,CLR,0.00,128.00,VWS V14.00,2013-01-23 21:40:00,
2013-01-23 15:45:00,0.2,-6.4,30.68,North,5,7.0,9.0,73,0.00,,CLR,0.00,130.00,VWS V14.00,2013-01-23 21:45:00,
2013-01-23 15:50:00,0.1,-6.6,30.67,NNE,13,5.0,9.0,73,0.00,,CLR,0.00,130.00,VWS V14.00,2013-01-23 21:50:00,
2013-01-23 15:55:00,0.1,-6.5,30.67,NNE,20,9.0,11.0,73,0.00,,CLR,0.00,134.00,VWS V14.00,2013-01-23 21:55:00,
2013-01-23 16:00:00,0.2,-6.1,30.67,NNE,28,11.0,11.0,74,0.00,,CLR,0.00,132.00,VWS V14.00,2013-01-23 22:00:00,
2013-01-23 16:05:00,0.2,-6.1,30.67,NNE,28,9.0,11.0,74,0.00,,CLR,0.00,128.00,VWS V14.00,2013-01-23 22:05:00,
2013-01-23 16:10:00,0.2,-6.1,30.66,NNE,16,10.0,11.0,74,0.00,,CLR,0.00,121.00,VWS V14.00,2013-01-23 22:10:00,
2013-01-23 16:15:00,0.1,-6.6,30.67,NNE,22,6.0,11.0,73,0.00,,CLR,0.00,111.00,VWS V14.00,2013-01-23 22:15:00,
2013-01-23 16:20:00,-0.1,-6.7,30.66,NNE,25,8.0,11.0,73,0.00,,CLR,0.00,98.00,VWS V14.00,2013-01-23 22:20:00,
2013-01-23 16:25:00,-0.2,-6.5,30.67,NNE,31,8.0,11.0,74,0.00,,CLR,0.00,86.00,VWS V14.00,2013-01-23 22:25:00,
2013-01-23 16:30:00,-0.3,-6.6,30.66,NNE,30,8.0,8.0,74,0.00,,CLR,0.00,72.00,VWS V14.00,2013-01-23 22:30:00,
2013-01-23 16:35:00,-0.5,-6.8,30.67,NE,42,6.0,8.0,74,0.00,,CLR,0.00,60.00,VWS V14.00,2013-01-23 22:35:00,
2013-01-23 16:40:00,-0.6,-6.9,30.67,NE,45,8.0,10.0,74,0.00,,CLR,0.00,53.00,VWS V14.00,2013-01-23 22:40:00,
2013-01-23 16:45:00,-0.8,-7.1,30.66,NE,34,9.0,11.0,74,0.00,,CLR,0.00,49.00,VWS V14.00,2013-01-23 22:45:00,
2013-01-23 16:50:00,-1.0,-7.0,30.66,NE,46,7.0,11.0,75,0.00,,CLR,0.00,46.00,VWS V14.00,2013-01-23 22:50:00,
2013-01-23 16:55:00,-1.1,-7.1,30.66,NE,38,9.0,11.0,75,0.00,,CLR,0.00,40.00,VWS V14.00,2013-01-23 22:55:00,
2013-01-23 17:00:00,-1.3,-7.6,30.67,NE,40,8.0,8.0,74,0.00,,CLR,0.00,33.00,VWS V14.00,2013-01-23 23:00:00,
2013-01-23 17:05:00,-1.4,-7.4,30.67,NE,34,7.0,11.0,75,0.00,,CLR,0.00,25.00,VWS V14.00,2013-01-23 23:05:00,
2013-01-23 17:11:00,-1.5,-7.5,30.66,NE,46,7.0,11.0,75,0.00,,CLR,0.00,18.00,VWS V14.00,2013-01-23 23:11:00,
2013-01-23 17:16:00,-1.7,-7.9,30.67,NE,53,4.0,11.0,74,0.00,,CLR,0.00,12.00,VWS V14.00,2013-01-23 23:16:00,
2013-01-23 17:21:00,-1.8,-7.8,30.66,NE,50,4.0,11.0,75,0.00,,CLR,0.00,11.00,VWS V14.00,2013-01-23 23:21:00,
2013-01-23 17:26:00,-2.0,-8.2,30.66,NE,54,8.0,11.0,74,0.00,,CLR,0.00,7.00,VWS V14.00,2013-01-23 23:26:00,
2013-01-23 17:31:00,-2.1,-8.1,30.67,ENE,58,5.0,9.0,75,0.00,,CLR,0.00,0.00,VWS V14.00,2013-01-23 23:31:00,
2013-01-23 17:36:00,-2.3,-8.3,30.66,ENE,59,5.0,9.0,75,0.00,,CLR,0.00,0.00,VWS V14.00,2013-01-23 23:36:00,
2013-01-23 17:41:00,-2.2,-7.9,30.67,ENE,57,5.0,9.0,76,0.00,,CLR,0.00,0.00,VWS V14.00,2013-01-23 23:41:00,
2013-01-23 17:46:00,-2.3,-8.3,30.67,ENE,62,8.0,10.0,75,0.00,,CLR,0.00,0.00,VWS V14.00,2013-01-23 23:46:00,
2013-01-23 17:51:00,-2.3,-8.3,30.67,ENE,57,5.0,10.0,75,0.00,,CLR,0.00,0.00,VWS V14.00,2013-01-23 23:51:00,
2013-01-23 17:56:00,-2.4,-8.1,30.67,ENE,57,7.0,10.0,76,0.00,,CLR,0.00,0.00,VWS V14.00,2013-01-23 23:56:00,
2013-01-23 18:01:00,-2.5,-8.4,30.67,ENE,61,10.0,13.0,75,0.00,,CLR,0.00,0.00,VWS V14.00,2013-01-24 00:01:00,
2013-01-23 18:06:00,-2.5,-8.4,30.66,ENE,57,9.0,13.0,75,0.00,,CLR,0.00,0.00,VWS V14.00,2013-01-24 00:06:00,
2013-01-23 18:11:00,-2.6,-8.6,30.67,ENE,60,7.0,13.0,75,0.00,,BKN110,0.00,0.00,VWS V14.00,2013-01-24 00:11:00,
2013-01-23 18:16:00,-2.7,-8.6,30.67,ENE,63,12.0,13.0,75,0.00,,BKN110,0.00,0.00,VWS V14.00,2013-01-24 00:16:00,
2013-01-23 18:21:00,-2.7,-8.9,30.67,ENE,62,7.0,13.0,74,0.00,,BKN110,0.00,0.00,VWS V14.00,2013-01-24 00:21:00,
2013-01-23 18:26:00,-2.7,-8.6,30.67,ENE,76,7.0,13.0,75,0.00,,BKN110,0.00,0.00,VWS V14.00,2013-01-24 00:26:00,
2013-01-23 18:31:00,-2.8,-8.7,30.67,ENE,73,7.0,10.0,75,0.00,,BKN110,0.00,0.00,VWS V14.00,2013-01-24 00:31:00,
2013-01-23 18:36:00,-3.1,-9.0,30.67,East,79,8.0,11.0,75,0.00,,BKN110,0.00,0.00,VWS V14.00,2013-01-24 00:36:00,
2013-01-23 18:41:00,-3.2,-8.9,30.67,ENE,71,8.0,11.0,76,0.00,,BKN110,0.00,0.00,VWS V14.00,2013-01-24 00:41:00,
2013-01-23 18:46:00,-3.4,-9.1,30.68,East,81,5.0,11.0,76,0.00,,BKN110,0.00,0.00,VWS V14.00,2013-01-24 00:46:00,
2013-01-23 18:51:00,-3.5,-9.1,30.68,East,88,8.0,11.0,76,0.00,,BKN110,0.00,0.00,VWS V14.00,2013-01-24 00:51:00,
2013-01-23 18:56:00,-3.6,-9.0,30.67,East,91,7.0,11.0,77,0.00,,BKN110,0.00,0.00,VWS V14.00,2013-01-24 00:56:00,
2013-01-23 19:01:00,-3.7,-9.4,30.68,East,86,9.0,10.0,76,0.00,,BKN110,0.00,0.00,VWS V14.00,2013-01-24 01:01:00,
2013-01-23 19:06:00,-3.7,-9.1,30.69,East,87,6.0,10.0,77,0.00,,BKN110,0.00,0.00,VWS V14.00,2013-01-24 01:06:00,
2013-01-23 19:11:00,-3.7,-9.1,30.68,East,99,8.0,10.0,77,0.00,,BKN110,0.00,0.00,VWS V14.00,2013-01-24 01:11:00,
2013-01-23 19:16:00,-3.6,-9.0,30.68,East,101,5.0,10.0,77,0.00,,BKN110,0.00,0.00,VWS V14.00,2013-01-24 01:16:00,
2013-01-23 19:21:00,-3.6,-8.7,30.68,ESE,109,7.0,10.0,78,0.00,,BKN110,0.00,0.00,VWS V14.00,2013-01-24 01:21:00,
2013-01-23 19:26:00,-3.6,-8.7,30.68,ESE,108,7.0,10.0,78,0.00,,BKN110,0.00,0.00,VWS V14.00,2013-01-24 01:26:00,
2013-01-23 19:31:00,-3.5,-8.6,30.68,ESE,106,7.0,9.0,78,0.00,,BKN110,0.00,0.00,VWS V14.00,2013-01-24 01:31:00,
2013-01-23 19:36:00,-3.6,-8.7,30.68,ESE,103,8.0,10.0,78,0.00,,BKN110,0.00,0.00,VWS V14.00,2013-01-24 01:36:00,
2013-01-23 19:42:00,-3.7,-8.8,30.69,East,100,8.0,10.0,78,0.00,,BKN110,0.00,0.00,VWS V14.00,2013-01-24 01:42:00,
2013-01-23 19:47:00,-3.6,-8.5,30.68,ESE,105,5.0,10.0,79,0.00,,BKN110,0.00,0.00,VWS V14.00,2013-01-24 01:47:00,
2013-01-23 19:52:00,-3.6,-8.5,30.68,ESE,119,9.0,12.0,79,0.00,,BKN110,0.00,0.00,VWS V14.00,2013-01-24 01:52:00,
2013-01-23 19:57:00,-3.7,-8.6,30.68,ESE,117,9.0,12.0,79,0.00,,BKN110,0.00,0.00,VWS V14.00,2013-01-24 01:57:00,
2013-01-23 20:02:00,-3.9,-8.8,30.68,ESE,122,5.0,10.0,79,0.00,,BKN110,0.00,0.00,VWS V14.00,2013-01-24 02:02:00,
2013-01-23 20:07:00,-4.0,-8.9,30.68,ESE,121,10.0,11.0,79,0.00,,BKN110,0.00,0.00,VWS V14.00,2013-01-24 02:07:00,
2013-01-23 20:12:00,-3.9,-8.5,30.68,ESE,120,7.0,12.0,80,0.00,,BKN110,0.00,0.00,VWS V14.00,2013-01-24 02:12:00,
2013-01-23 20:17:00,-3.9,-8.5,30.68,ESE,120,9.0,12.0,80,0.00,,BKN110,0.00,0.00,VWS V14.00,2013-01-24 02:17:00,
2013-01-23 20:22:00,-3.8,-8.4,30.68,ESE,117,10.0,12.0,80,0.00,,BKN110,0.00,0.00,VWS V14.00,2013-01-24 02:22:00,
2013-01-23 20:27:00,-3.7,-8.3,30.68,SE,124,7.0,12.0,80,0.00,,BKN110,0.00,0.00,VWS V14.00,2013-01-24 02:27:00,
2013-01-23 20:32:00,-3.7,-8.6,30.68,ESE,122,11.0,12.0,79,0.00,,BKN110,0.00,0.00,VWS V14.00,2013-01-24 02:32:00,
2013-01-23 20:37:00,-3.7,-8.6,30.69,ESE,122,11.0,12.0,79,0.00,,BKN110,0.00,0.00,VWS V14.00,2013-01-24 02:37:00,
2013-01-23 20:42:00,-3.6,-8.2,30.69,SE,130,9.0,12.0,80,0.00,,CLR,0.00,0.00,VWS V14.00,2013-01-24 02:42:00,
2013-01-23 20:47:00,-3.6,-8.2,30.69,SE,129,10.0,14.0,80,0.00,,CLR,0.00,0.00,VWS V14.00,2013-01-24 02:47:00,
2013-01-23 20:52:00,-3.6,-8.2,30.69,SE,139,12.0,14.0,80,0.00,,CLR,0.00,0.00,VWS V14.00,2013-01-24 02:52:00,
2013-01-23 20:57:00,-3.5,-8.1,30.69,SE,144,11.0,14.0,80,0.00,,CLR,0.00,0.00,VWS V14.00,2013-01-24 02:57:00,
2013-01-23 21:02:00,-3.6,-8.5,30.69,SE,132,8.0,13.0,79,0.00,,CLR,0.00,0.00,VWS V14.00,2013-01-24 03:02:00,
2013-01-23 21:07:00,-3.7,-8.6,30.69,SE,137,9.0,14.0,79,0.00,,CLR,0.00,0.00,VWS V14.00,2013-01-24 03:07:00,
2013-01-23 21:12:00,-3.6,-8.5,30.70,SE,134,12.0,14.0,79,0.00,,CLR,0.00,0.00,VWS V14.00,2013-01-24 03:12:00,
2013-01-23 21:17:00,-3.6,-8.2,30.69,SE,142,10.0,15.0,80,0.00,,CLR,0.00,0.00,VWS V14.00,2013-01-24 03:17:00,
2013-01-23 21:22:00,-3.6,-8.5,30.70,SE,139,10.0,15.0,79,0.00,,CLR,0.00,0.00,VWS V14.00,2013-01-24 03:22:00,
2013-01-23 21:27:00,-3.7,-8.6,30.71,SSE,148,10.0,15.0,79,0.00,,CLR,0.00,0.00,VWS V14.00,2013-01-24 03:27:00,
2013-01-23 21:32:00,-3.7,-8.6,30.72,SSE,148,8.0,10.0,79,0.00,,CLR,0.00,0.00,VWS V14.00,2013-01-24 03:32:00,
2013-01-23 21:37:00,-3.7,-8.6,30.71,SE,132,9.0,11.0,79,0.00,,CLR,0.00,0.00,VWS V14.00,2013-01-24 03:37:00,
2013-01-23 21:42:00,-3.8,-8.7,30.70,SE,131,9.0,13.0,79,0.00,,OVC110,0.00,0.00,VWS V14.00,2013-01-24 03:42:00,
2013-01-23 21:47:00,-3.7,-8.3,30.69,SE,128,11.0,14.0,80,0.00,,OVC110,0.00,0.00,VWS V14.00,2013-01-24 03:47:00,
2013-01-23 21:52:00,-3.7,-8.3,30.69,SE,130,10.0,14.0,80,0.00,,OVC110,0.00,0.00,VWS V14.00,2013-01-24 03:52:00,
2013-01-23 21:57:00,-3.7,-8.3,30.69,SE,126,11.0,14.0,80,0.00,,OVC110,0.00,0.00,VWS V14.00,2013-01-24 03:57:00,
2013-01-23 22:02:00,-3.7,-8.3,30.69,SE,138,4.0,12.0,80,0.00,,OVC110,0.00,0.00,VWS V14.00,2013-01-24 04:02:00,
2013-01-23 22:07:00,-3.7,-8.3,30.69,SE,127,12.0,13.0,80,0.00,,OVC110,0.00,0.00,VWS V14.00,2013-01-24 04:07:00,
2013-01-23 22:12:00,-3.7,-8.1,30.67,SE,132,12.0,14.0,81,0.00,,OVC110,0.00,0.00,VWS V14.00,2013-01-24 04:12:00,
2013-01-23 22:18:00,-3.7,-8.3,30.67,SE,140,11.0,15.0,80,0.00,,OVC110,0.00,0.00,VWS V14.00,2013-01-24 04:18:00,
2013-01-23 22:23:00,-3.8,-8.4,30.67,SE,124,11.0,18.0,80,0.00,,OVC110,0.00,0.00,VWS V14.00,2013-01-24 04:23:00,
2013-01-23 22:28:00,-3.8,-8.4,30.66,SE,131,10.0,18.0,80,0.00,,OVC110,0.00,0.00,VWS V14.00,2013-01-24 04:28:00,
2013-01-23 22:33:00,-3.9,-8.5,30.66,ESE,116,14.0,17.0,80,0.00,,OVC110,0.00,0.00,VWS V14.00,2013-01-24 04:33:00,
2013-01-23 22:38:00,-3.9,-8.5,30.66,SE,124,13.0,17.0,80,0.00,,OVC110,0.00,0.00,VWS V14.00,2013-01-24 04:38:00,
2013-01-23 22:43:00,-3.9,-8.5,30.67,SE,135,13.0,17.0,80,0.00,,OVC095,0.00,0.00,VWS V14.00,2013-01-24 04:43:00,
2013-01-23 22:48:00,-3.7,-8.3,30.68,SE,128,10.0,17.0,80,0.00,,OVC095,0.00,0.00,VWS V14.00,2013-01-24 04:48:00,
2013-01-23 22:53:00,-3.6,-8.2,30.68,SE,136,13.0,17.0,80,0.00,,OVC095,0.00,0.00,VWS V14.00,2013-01-24 04:53:00,
2013-01-23 22:58:00,-3.5,-8.4,30.68,SE,141,11.0,17.0,79,0.00,,OVC095,0.00,0.00,VWS V14.00,2013-01-24 04:58:00,
2013-01-23 23:03:00,-3.5,-8.4,30.68,SE,132,13.0,15.0,79,0.00,,OVC095,0.00,0.00,VWS V14.00,2013-01-24 05:03:00,
2013-01-23 23:04:00,-3.5,-8.4,30.68,SE,136,12.0,15.0,79,0.00,,OVC095,0.00,0.00,VWS V14.00,2013-01-24 05:04:00,
2013-01-23 23:06:00,-3.5,-8.1,30.68,SE,142,10.0,15.0,80,0.00,,OVC095,0.00,0.00,VWS V14.00,2013-01-24 05:06:00,
2013-01-23 23:08:00,-3.5,-8.4,30.68,SE,136,16.0,16.0,79,0.00,,OVC095,0.00,0.00,VWS V14.00,2013-01-24 05:08:00,
2013-01-23 23:13:00,-3.5,-8.4,30.68,SE,134,13.0,16.0,79,0.00,,OVC095,0.00,0.00,VWS V14.00,2013-01-24 05:13:00,
2013-01-23 23:19:00,-3.5,-8.4,30.67,SE,131,14.0,16.0,79,0.00,,OVC095,0.00,0.00,VWS V14.00,2013-01-24 05:19:00,
2013-01-23 23:24:00,-3.6,-8.5,30.67,SE,135,12.0,17.0,79,0.00,,OVC095,0.00,0.00,VWS V14.00,2013-01-24 05:24:00,
2013-01-23 23:29:00,-3.4,-8.0,30.68,SE,145,9.0,17.0,80,0.00,,OVC095,0.00,0.00,VWS V14.00,2013-01-24 05:29:00,
2013-01-23 23:34:00,-3.5,-8.4,30.69,SE,129,12.0,17.0,79,0.00,,OVC095,0.00,0.00,VWS V14.00,2013-01-24 05:34:00,
2013-01-23 23:39:00,-3.7,-8.6,30.68,SE,142,14.0,17.0,79,0.00,,OVC095,0.00,0.00,VWS V14.00,2013-01-24 05:39:00,
2013-01-23 23:44:00,-3.7,-8.6,30.68,SE,128,12.0,17.0,79,0.00,,FEW110,0.00,0.00,VWS V14.00,2013-01-24 05:44:00,
2013-01-23 23:49:00,-3.7,-8.6,30.67,SE,134,11.0,17.0,79,0.00,,FEW110,0.00,0.00,VWS V14.00,2013-01-24 05:49:00,
2013-01-23 23:54:00,-3.7,-8.6,30.67,SE,130,17.0,18.0,79,0.00,,FEW110,0.00,0.00,VWS V14.00,2013-01-24 05:54:00,
2013-01-23 23:59:00,-3.7,-8.6,30.68,SE,134,11.0,18.0,79,0.00,,FEW110,0.00,0.00,VWS V14.00,2013-01-24 05:59:00,